{"data":{"norad_id":66728,"epoch":"2026-05-25T03:09:04.673376Z","epoch_age_seconds":53766,"freshness":"FRESH","line1":"1 66728U 25276BQ  26145.13130409  .00005288  00000+0  24603-3 0  9990","line2":"2 66728  97.4198 219.2567 0001667  79.0731 281.0692 15.20371053 26214","mean_motion":15.20371053,"eccentricity":0.0001667,"inclination_deg":97.4198,"raan_deg":219.2567,"arg_perigee_deg":79.0731,"mean_anomaly_deg":281.0692,"bstar":0.00024603,"rev_number":2621,"period_min":94.713721177379,"perigee_km":503.57315321817,"apogee_km":505.8678979172,"semimajor_km":6882.8575255677,"source":"CELESTRAK","updated_at":"2026-05-25T13:38:13.371294Z"}}